Regional Weather Roundup
Issued by NWS

Home | Current Version | Previous Version | Graphics & Text | Print | Product List | Glossary On
Versions: 1 2 3 4 5 6 7 8 9 10 11 12 13 14 15 16 17 18 19 20 21 22 23 24 25 26 27 28 29 30 31 32 33 34 35 36 37 38 39 40 41 42 43 44 45 46 47 48 49 50
000
ASUS43 KDMX 241106
RWRIA

WEATHER ROUNDUP FOR IOWA
NATIONAL WEATHER SERVICE DES MOINES IA
600 AM CDT SUN SEP 24 2017

NOTE: "FAIR" INDICATES FEW OR NO CLOUDS BELOW 12,000 FEET WITH NO
SIGNIFICANT WEATHER AND/OR OBSTRUCTIONS TO VISIBILITY.

* - THESE STATIONS ARE NOT NWS STATIONS...THUS NOT UNDER NWS
QUALITY CONTROL.  THEY ALSO DO NOT REPORT WEATHER SUCH
AS PRECIPITATION OR FOG.

IAZ001>003-012>014-020>022-031>034-043>046-241200-
   NORTHWEST IOWA

CITY           SKY/WX    TMP DP  RH WIND       PRES   REMARKS
CARROLL *      CLEAR     63  63 100 S3        29.95R
CHEROKEE *     CLEAR     65  65 100 S5        29.92S
DENISON *      CLEAR     70  64  83 S10       29.95R
LE MARS *      CLEAR     68  64  88 SE7       29.90R
ORANGE CITY *  PTCLDY    70  66  88 S7        29.91R
SHELDON *      CLEAR     68  64  88 S8        29.90R
SIOUX CITY     PTCLDY    64  64 100 SE7       29.89S
SPENCER        CLEAR     66  63  90 SE8       29.93S
STORM LAKE *   CLEAR     64  63  94 SE6       29.94S
$$

IAZ055>058-069>071-079>083-090>094-241200-
   SOUTHWEST IOWA

CITY           SKY/WX    TMP DP  RH WIND       PRES   REMARKS
ATLANTIC *     CLEAR     70  64  83 CALM      29.94S
AUDUBON *      CLEAR     61  57  88 CALM      29.96S FOG
CLARINDA *     CLEAR     63  63 100 CALM      29.96S
COUNCIL BLFS * CLEAR     68  68 100 SE7       29.93S
CRESTON *      CLEAR     66  63  88 SE7       29.98S
HARLAN  *      CLEAR     68  66  94 CALM      29.97R
LAMONI         CLEAR     69  63  81 S5        29.97S
RED OAK *      CLEAR     68  64  88 SE3       29.94R
SHENANDOAH *   CLEAR     68  66  94 SE5       29.93S
$$

IAZ047>049-059>061-072>074-084-241200-
   CENTRAL IOWA

CITY           SKY/WX    TMP DP  RH WIND       PRES   REMARKS
AMES           CLEAR     65  64  97 CALM      29.97S
ANKENY *       CLEAR     68  63  83 S5        29.98R
BOONE *        CLEAR     66  63  88 SE6       29.96S
CHARITON *     CLEAR     66  63  88 SE7       29.98R
DES MOINES     CLEAR     72  63  73 SE6       29.96S
GRINNELL*      CLEAR     65  61  85 E3        30.01R
KNOXVILLE *    CLEAR     68  61  77 SE6       29.97R
MARSHALLTOWN   CLEAR     65  62  90 SE8       29.98S
NEWTON *       CLEAR     66  63  88 SE6       29.99S
PELLA *        CLEAR     67  61  83 SE3       30.00R
PERRY *          N/A     65  64  97 SE5       29.96S
$$

IAZ004>006-015-016-023>025-035-036-241200-
   NORTH CENTRAL IOWA

CITY           SKY/WX    TMP DP  RH WIND       PRES   REMARKS
ALGONA *       CLEAR     68  66  94 S9        29.95S
CLARION *      CLEAR     68  66  94 SE8       29.97S
ESTHERVILLE    CLEAR     64  64 100 S8        29.94R
FORT DODGE *   CLEAR     70  65  84 SE5       29.96S
MASON CITY     PTCLDY    66  61  84 S7        29.99S
FOREST CITY *    N/A     64  63  94 SE7       29.97S
WEBSTER CITY * CLEAR     66  63  88 SE8       29.95S
IOWA FALLS *     N/A     66  63  87 SE6       30.00S
$$

IAZ007>011-017>019-026>030-037>042-050>054-066-241200-
   NORTHEAST IOWA

CITY           SKY/WX    TMP DP  RH WIND       PRES   REMARKS
CEDAR RAPIDS   CLEAR     63  61  93 E5        30.01S
CHARLES CITY * CLEAR     68  63  83 SE6       30.00S
CLINTON *      CLEAR    N/A N/A N/A E6        30.05S
DECORAH *      CLEAR     68  63  83 SE6       30.01S
DUBUQUE        CLEAR     67  62  84 S3        30.06R
MONTICELLO *   CLEAR     61  61 100 CALM      30.03S
OELWEIN *      CLEAR     66  63  88 SE8       30.03R
WATERLOO       CLEAR     68  61  78 SE8       29.99S
$$

IAZ064-065-067-068-078-241200-
   EAST CENTRAL IOWA

CITY           SKY/WX    TMP DP  RH WIND       PRES   REMARKS
DAVENPORT      CLEAR     63  61  93 SE5       30.06S
IOWA CITY        N/A     66  62  87 CALM      30.03S
MUSCATINE *    CLEAR     63  63 100 CALM      30.03S FOG
QUAD CITIES    CLEAR     67  60  78 CALM      30.03S
$$

IAZ062-063-075>077-085>089-095>099-241200-
   SOUTHEAST IOWA

CITY           SKY/WX    TMP DP  RH WIND       PRES   REMARKS
BURLINGTON     CLEAR     66  62  87 E3        30.02S
FAIRFIELD *    CLEAR     66  61  82 SE6       30.00S
FORT MADISON * CLEAR     68  61  77 SE5       30.03S
KEOKUK *       CLEAR     64  61  88 E6        30.01S
OSKALOOSA *      N/A     65  62  88 SE6       30.00R
OTTUMWA        CLEAR     69  62  78 SE7       29.99S
WASHINGTON *   CLEAR     63  61  94 SE5       30.02S
$$

ABBREVIATIONS USED IN REMARKS
   TC - TEMPERATURES IN CELSIUS
  WCI - WIND CHILL INDEX
   HX - HEAT INDEX
  VSB - VISIBILITY
$$





USA.gov is the U.S. government's official web portal to all federal, state and local government web resources and services.